#timestamp,LO_Frequency,Hit,StdDev 
1553364015.3,286047000.6,N
1553364035.1,286047000.9,N
1553364055.9,286047001.1,N
1553364075.7,286046998.6,N
1553364095.5,286046997.1,N
1553364115.4,286046997.9,N
1553364135.2,286046997.4,N
1553364155.1,286046995.5,N
1553364156.0,286046995.5,N
1553364175.8,286046995.7,N
1553364195.6,286046997.0,N
1553364215.5,286046998.6,N
1553364235.3,286046998.4,N
1553364255.1,286046998.6,N
1553364275.9,286047001.1,N
1553364295.7,286047001.2,N
1553364315.6,286047000.5,N
1553364335.4,286047001.1,N
1553364355.2,286046999.1,N
1553364375.1,286046998.9,N
1553364376.0,286046998.9,N
1553364395.8,286046999.4,N
1553364415.6,286046997.3,N
1553364435.5,286046999.4,N
1553364455.3,286046998.5,N
1553364475.1,286047000.7,N
1553364495.9,286047000.8,N
1553364515.7,286046998.5,N
1553364535.6,286047000.7,N
1553364555.4,286047001.0,N
1553364575.2,286047000.4,N
1553364595.1,286046999.8,N
1553364596.0,286046999.8,N
1553364615.8,286047001.0,N
1553364635.6,286046998.9,N
1553364655.5,286046999.5,N
1553364675.3,286047000.7,N
1553364695.2,286047001.1,N
1553364715.9,286046998.9,N
1553364735.7,286046997.3,N
1553364755.6,286046997.7,N
1553364775.4,286046997.7,N
1553364795.2,286046996.9,N
1553364815.1,286046999.2,N
1553364816.0,286046999.2,N
1553364835.8,286046998.6,N
1553364855.7,286046998.5,N
1553364875.5,286047001.1,N
1553364895.3,286047001.1,N
1553364915.2,286046999.8,N
1553364935.0,286047002.4,N
1553364935.9,286047002.4,N
1553364955.7,286047000.8,N
1553364975.6,286046998.8,N
1553364995.4,286046999.3,N
1553365015.3,286046998.2,N
1553365035.1,286046996.6,N
1553365036.0,286046996.6,N
1553365055.8,286046999.3,N
1553365075.7,286046997.0,N
1553365095.5,286046998.5,N
1553365115.4,286047000.9,N
1553365135.2,286047002.4,N
1553365155.0,286047002.8,N
1553365156.0,286047002.8,N
1553365175.8,286047000.5,N
1553365195.6,286047002.8,N
1553365215.5,286047002.5,N
1553365235.3,286047002.4,N
1553365255.2,286047000.4,N
1553365275.9,286047001.1,N
1553365295.7,286047000.7,N
1553365315.6,286046998.5,N
1553365335.4,286047000.8,N
1553365355.2,286046998.4,N
1553365375.1,286046998.7,N
1553365376.0,286046998.7,N
1553365395.8,286047001.1,N
1553365415.7,286047000.9,N
1553365435.5,286047000.6,N
1553365455.3,286046998.9,N
1553365475.2,286046998.1,N
1553365495.0,286046998.4,N
1553365495.9,286046998.4,N
1553365515.8,286046998.3,N
1553365535.6,286046998.3,N
1553365555.4,286047001.2,N
1553365575.3,286047000.0,N
1553365595.1,286047000.1,N
1553365615.9,286047000.1,N
1553365635.7,286046999.9,N
1553365655.5,286046999.8,N
1553365675.4,286047000.8,N
1553365695.2,286046998.6,N
1553365715.0,286047002.8,N
1553365715.9,286047002.8,N
1553365735.8,286046999.9,N
1553365755.6,286047002.1,N
1553365775.5,286047002.1,N
1553365795.3,286047002.6,N
1553365815.1,286047001.4,N
1553365835.9,286047001.4,N
1553365855.7,286047002.1,N
1553365875.5,286046999.7,N
1553365895.4,286047001.7,N
1553365915.2,286047002.1,N
1553365935.1,286047002.6,N
1553365936.0,286047002.6,N
1553365955.8,286047003.6,N
1553365975.6,286047002.0,N
1553365995.5,286047002.5,N
1553366015.3,286047000.2,N
1553366035.1,286046999.8,N
1553366055.9,286047002.0,N
1553366075.7,286047001.9,N
1553366095.6,286046999.8,N
1553366115.4,286047001.2,N
1553366135.2,286047000.1,N
1553366155.1,286046999.8,N
1553366156.0,286046999.8,N
1553366175.8,286047000.0,N
1553366195.6,286047000.1,N
1553366215.5,286047002.6,N
1553366235.3,286047000.0,N
1553366255.2,286047000.4,N
1553366275.9,286046998.9,N
1553366295.7,286047000.8,N
1553366315.6,286047001.0,N
1553366335.4,286046998.5,N
1553366355.2,286046999.5,N
1553366375.1,286046999.2,N
1553366376.0,286046999.2,N
1553366395.8,286046998.5,N
1553366415.7,286047000.9,N
1553366435.5,286047000.5,N
1553366455.3,286047000.9,N
1553366475.2,286046999.7,N
1553366495.9,286047004.0,Y
1553366515.7,286047004.1,P
1553366535.6,286047004.2,N
1553366555.4,286047001.5,N
1553366575.3,286047001.8,N
1553366595.1,286047001.3,N
1553366596.0,286047001.3,N
1553366615.8,286047002.3,N
1553366635.7,286047002.2,N
1553366655.5,286047002.5,N
1553366675.3,286046999.8,N
1553366695.2,286047002.3,N
1553366715.0,286047002.3,N
1553366715.9,286047002.3,N
1553366735.8,286047002.8,N
1553366755.6,286047017.3,Y
1553366775.4,286047018.4,P
1553366795.3,286047014.5,N
1553366815.1,286047011.4,N
1553366835.8,286047008.0,N
1553366855.7,286047005.3,N
1553366875.5,286047005.0,N
1553366895.4,286047005.9,N
1553366915.2,286047004.5,N
1553366935.0,286047004.6,N
1553366935.9,286047004.6,N
1553366955.8,286047005.2,N
1553366975.1,286047001.7,N
1553366976.0,286047001.7,N
1553366995.8,286047002.1,N
1553367015.6,286047001.9,N
1553367035.5,286047002.3,N
1553367055.3,286046999.8,N
1553367075.1,286047000.2,N
1553367095.9,286046998.1,N
1553367115.7,286046999.5,N
1553367135.6,286046994.9,N
1553367155.4,286046996.1,N
1553367175.2,286046995.5,N
1553367195.1,286046997.3,N
1553367196.0,286046997.3,N
1553367215.8,286046995.0,N
1553367235.6,286046995.0,N
1553367255.5,286046996.3,N
1553367275.3,286046995.6,N
1553367295.2,286046996.1,N
1553367315.9,286046997.6,N
1553367335.7,286046997.0,N
1553367355.6,286047000.8,N
1553367375.4,286046998.7,N
1553367395.2,286046998.4,N
1553367415.1,286047000.6,N
1553367416.0,286047000.6,N
1553367435.8,286046998.9,N
1553367455.7,286046997.4,N
1553367475.5,286046998.6,N
1553367495.3,286046997.1,N
1553367515.2,286046997.1,N
1553367535.9,286046996.7,N
1553367555.7,286046998.3,N
1553367575.6,286047001.0,N
1553367595.4,286047000.1,N
